1303948827556,2.01602
1303948887556,2.01783
1303948947556,2.00608
1303949007556,2.00934
1303949067556,2.01369
1303949127556,2.01153
1303949187556,2.02131
1303949247556,2.00553
1303949307556,2.00334
1303949367556,2.01954
1303949427556,2.00607
1303949487556,2.00026
1303949547556,2.00981
1303949607556,2.02882
1303949667556,2.00940
1303949727556,2.00562
1303949787556,2.01295
1303949847556,1.99371
1303949907556,2.01184
1303949967556,2.00555
1303950027556,2.00920
1303950087556,2.00798
1303950147556,1.99017
1303950207556,2.01012
1303950267556,2.00773
1303950327556,2.01972
1303950387556,2.01644
1303950447556,2.01522
1303950507556,2.02554
1303950567556,1.99964
1303950627556,2.01792
1303950687556,1.95719
1303950747556,2.00300
1303950807556,2.03192
1303950867556,2.03957
1303950927556,2.02506
1303950987556,2.02335
1303951047556,2.02254
1303951107556,2.01231
1303951167556,2.02249
1303951227556,2.00580
1303951287556,2.02281
1303951347556,2.01246
1303951407556,2.02754
1303951467556,2.02334
1303951527556,2.00501
1303951587556,2.00990
1303951647556,2.01961
1303951707556,2.02278
1303951767556,2.02207
1303951827556,2.01586
1303951887556,2.01107
1303951947556,2.02976
1303952007556,2.00192
1303952067556,2.02307
1303952127556,2.02305
1303952187556,2.00902
1303952247556,2.02047
1303952307556,2.02814
1303952367556,2.02324
1303952427567,2.01527
1303952487567,1.90344
1303952547567,2.01146
1303952607567,2.01083
1303952667567,2.01186
1303952727567,2.01699
1303952787567,2.00721
1303952847567,2.01636
1303952907567,2.01383
1303952967567,2.01331
1303953027567,2.01801
1303953087567,2.01045
1303953147567,2.03148
1303953207567,2.01819
1303953267567,2.02519
1303953327567,1.99855
1303953387567,2.01066
1303953447567,2.00206
1303953507567,2.00913
1303953567567,1.99982
1303953627567,2.03009
1303953687567,2.01959
1303953747567,2.00297
1303953807567,2.01285
1303953867567,2.01604
1303953927567,2.03338
1303953987567,2.00627
1303954047567,2.01021
1303954107567,2.01077
1303954167567,2.01335
1303954227567,2.02023
1303954287567,2.02236
1303954347567,2.01002
1303954407567,2.00626
1303954467567,1.98993
1303954527567,2.00752
1303954587567,2.01410
1303954647567,2.00857
1303954707567,1.99425
1303954767567,2.01664
1303954827567,2.00709
1303954887567,2.01331
1303954947567,2.00620
1303955007567,2.00136
1303955067567,1.99964
1303955127567,2.01031
1303955187567,2.00292
1303955247567,2.00290
1303955307567,2.01025
1303955367567,2.00522
1303955427567,1.99232
1303955487567,2.00151
1303955547567,2.00666
1303955607567,1.99915
1303955667567,1.99696
1303955727567,1.99163
1303955787567,2.01047
1303955847567,2.01288
1303955907567,2.00413
1303955967567,2.01254
1303956027578,2.00412
1303956087578,2.00729
1303956147578,1.99688
1303956207578,2.17923
1303956267578,2.03521
1303956327578,1.99895
1303956387578,1.99910
1303956447578,2.00707
1303956507578,2.00495
1303956567578,2.01035
1303956627578,1.99728
1303956687578,1.98932
1303956747578,1.98559
1303956807578,2.00293
1303956867578,1.99124
1303956927578,1.98979
1303956987578,1.98083
1303957047578,1.99740
1303957107578,1.98799
1303957167578,2.00394
1303957227578,1.99350
1303957287578,2.00029
1303957347578,1.99178
1303957407578,2.00498
1303957467578,1.98882
1303957527578,2.01109
1303957587578,1.98780
1303957647578,1.99880
1303957707578,1.98469
1303957767578,1.98654
1303957827578,1.98996
1303957887578,1.99517
1303957947578,1.99783
1303958007578,2.00218
1303958067578,1.98830
1303958127578,1.99532
1303958187578,1.98754
1303958247578,2.00758
1303958307578,1.99889
1303958367578,2.00604
1303958427578,2.01287
1303958487578,2.00846
1303958547578,2.00532
1303958607578,2.02668
1303958667578,2.03153
1303958727578,2.02950
1303958787578,2.03298
1303958847578,2.02006
1303958907578,2.02194
1303958967578,2.04190
1303959027578,2.03049
1303959087578,2.04401
1303959147578,2.03646
1303959207578,2.03514
1303959267578,2.03753
1303959327578,2.02843
1303959387578,2.02644
1303959447578,2.02421
1303959507578,2.01965
1303959567578,2.02733
1303959627589,2.01481
1303959687589,2.02564
1303959747589,2.01822
1303959807589,2.01858
1303959867589,1.99641
1303959927589,2.00079
1303959987589,1.96992
1303960047589,2.01256
1303960107589,2.00142
1303960167589,2.01320
1303960227589,2.00998
1303960287589,2.00259
1303960347589,2.00025
1303960407589,2.00804
1303960467589,2.00227
1303960527589,1.98923
1303960587589,2.00289
1303960647589,2.00151
1303960707589,1.99034
1303960767589,1.99072
1303960827589,2.00364
1303960887589,1.99615
1303960947589,1.99025
1303961007589,1.98016
1303961067589,1.98459
1303961127589,1.99914
1303961187589,1.99558
1303961247589,1.99804
1303961307589,1.99928
1303961367589,2.00229
1303961427589,1.99286
1303961487589,2.00060
1303961547589,2.00358
1303961607589,1.98777
1303961667589,1.97174
1303961727589,1.99317
1303961787589,1.99225
1303961847589,1.98942
1303961907589,1.98719
1303961967589,1.98752
1303962027589,1.99561
1303962087589,1.98942
1303962147589,1.98159
1303962207589,1.97768
1303962267589,1.99141
1303962327589,1.97852
1303962387589,1.98748
1303962447589,1.99067
1303962507589,1.98159
1303962567589,1.99008
1303962627589,1.98366
1303962687589,1.97683
1303962747589,1.98224
1303962807589,1.98510
1303962867589,1.98964
1303962927589,1.98960
1303962987589,1.96544
1303963047589,1.97880
1303963107589,1.98026
1303963167589,1.98325
1303963227599,1.97869
1303963287599,1.99390
1303963347599,1.99457
1303963407599,1.98689
1303963467599,1.99311
1303963527599,1.97374
1303963587599,1.97794
1303963647599,1.99116
1303963707599,1.98894
1303963767599,1.98471
1303963827599,1.98680
1303963887599,1.97618
1303963947599,1.98800
1303964007599,1.97441
1303964067599,1.97870
1303964127599,2.00714
1303964187599,1.98595
1303964247599,1.98298
1303964307599,1.97897
1303964367599,1.97634
1303964427599,1.98643
1303964487599,1.98508
1303964547599,1.97534
1303964607599,1.99215
1303964667599,1.98550
1303964727599,1.97976
1303964787599,1.98474
1303964847599,1.98015
1303964907599,1.98882
1303964967599,1.98988
1303965027599,1.97952
1303965087599,1.97840
1303965147599,1.99468
1303965207599,1.98468
1303965267599,1.98462
1303965327599,1.99351
1303965387599,1.98898
1303965447599,1.97938
1303965507599,1.98812
1303965567599,2.00876
1303965627599,1.99339
1303965687599,1.99072
1303965747599,1.98679
1303965807599,2.00008
1303965867599,1.99478
1303965927599,1.98975
1303965987599,1.99149
1303966047599,1.98278
1303966107599,2.00266
1303966167599,1.99006
1303966227599,1.99211
1303966287599,1.98525
1303966347599,1.99598
1303966407599,1.99633
1303966467599,1.98061
1303966527599,1.99595
1303966587599,1.98733
1303966647599,1.98932
1303966707599,1.98978
1303966767599,1.98181
1303966827610,1.99425
1303966887610,1.99056
1303966947610,1.99792
1303967007610,2.01051
1303967067610,1.99425
1303967127610,1.99709
1303967187610,1.98845
1303967247610,1.97908
1303967307610,1.99577
1303967367610,1.97931
1303967427610,1.95889
1303967487610,1.98065
1303967547610,1.98363
1303967607610,1.99310
1303967667610,1.99441
1303967727610,1.99603
1303967787610,2.00206
1303967847610,1.99224
1303967907610,1.99929
1303967967610,1.99194
1303968027610,2.00251
1303968087610,2.00140
1303968147610,1.98221
1303968207610,1.99418
1303968267610,1.99240
1303968327610,1.99073
1303968387610,1.98865
1303968447610,1.98634
1303968507610,1.99575
1303968567610,1.98012
1303968627610,2.00655
1303968687610,1.99746
1303968747610,1.99218
1303968807610,1.98547
1303968867610,1.98759
1303968927610,1.99246
1303968987610,1.98507
1303969047610,1.96884
1303969107610,2.00054
1303969167610,1.99614
1303969227610,2.00233
1303969287610,1.99295
1303969347610,1.99052
1303969407610,1.98390
1303969467610,1.98577
1303969527610,1.98365
1303969587610,1.97516
1303969647610,1.98661
1303969707610,1.97743
1303969767610,1.98294
1303969827610,1.99490
1303969887610,1.98879
1303969947610,1.98382
1303970007610,1.98801
1303970067610,1.98264
1303970127610,1.99603
1303970187610,2.00152
1303970247610,1.98591
1303970307610,1.97695
1303970367610,1.98043
1303970427620,1.97314
1303970487620,1.97547
1303970547620,1.98457
1303970607620,1.99567
1303970667620,1.98639
1303970727620,1.99265
1303970787620,1.99267
1303970847620,1.99986
1303970907620,1.98199
1303970967620,1.97477
1303971027620,1.98975
1303971087620,1.99323
1303971147620,1.99650
1303971207620,1.99605
1303971267620,1.97941
1303971327620,1.98321
1303971387620,1.97944
1303971447620,1.99385
1303971507620,1.98727
1303971567620,1.99440
1303971627620,1.99458
1303971687620,1.99197
1303971747620,1.97854
1303971807620,1.98826
1303971867620,2.08956
1303971927620,1.98968
1303971987620,1.99360
1303972047620,1.99786
1303972107620,2.00562
1303972167620,1.98498
1303972227620,1.97554
1303972287620,1.99501
1303972347620,2.12258
1303972407620,2.00176
1303972467620,1.98956
1303972527620,1.98895
1303972587620,1.99127
1303972647620,1.97907
1303972707620,1.96876
1303972767620,1.98856
1303972827620,2.00086
1303972887620,1.97908
1303972947620,1.97456
1303973007620,1.97536
1303973067620,1.99511
1303973127620,1.98510
1303973187620,1.97917
1303973247620,1.96483
1303973307620,1.99735
1303973367620,1.97777
1303973427620,1.99349
1303973487620,1.98508
1303973547620,1.98944
1303973607620,1.97747
1303973667620,1.97730
1303973727620,1.98209
1303973787620,1.97285
1303973847620,1.99119
1303973907620,1.98898
1303973967620,1.99216
1303974027631,1.98642
1303974087631,1.97332
1303974147631,1.98929
1303974207631,1.98381
1303974267631,1.97917
1303974327631,1.98168
1303974387631,1.98767
1303974447631,2.09772
1303974507631,1.97981
1303974567631,1.97922
1303974627631,1.97971
1303974687631,1.97992
1303974747631,1.99747
1303974807631,1.98039
1303974867631,1.98538
1303974927631,1.97339
1303974987631,1.97157
1303975047631,1.97494
1303975107631,1.98080
1303975167631,1.96635
1303975227631,1.96899
1303975287631,1.97529
1303975347631,1.96393
1303975407631,1.98771
1303975467631,1.98495
1303975527631,1.97895
1303975587631,1.97643
1303975647631,1.96669
1303975707631,1.97791
1303975767631,1.97626
1303975827631,1.96749
1303975887631,1.97454
1303975947631,1.97954
1303976007631,1.97179
1303976067631,1.96454
1303976127631,1.97403
1303976187631,1.99010
1303976247631,1.96813
1303976307631,1.99170
1303976367631,1.97370
1303976427631,1.98262
1303976487631,1.97579
1303976547631,1.97588
1303976607631,1.99219
1303976667631,1.96425
1303976727631,1.97972
1303976787631,1.98611
1303976847631,1.97299
1303976907631,1.99203
1303976967631,1.98389
1303977027631,1.98202
1303977087631,1.97929
1303977147631,2.00458
1303977207631,1.98768
1303977267631,1.98137
1303977327631,1.99867
1303977387631,1.97295
1303977447631,1.96919
1303977507631,1.99014
1303977567631,1.97411
1303977627641,1.97440
1303977687641,1.97618
1303977747641,1.97891
1303977807641,1.96642
1303977867641,1.96960
1303977927641,1.97140
1303977987641,1.96467
1303978047641,1.97208
1303978107641,1.97126
1303978167641,1.97346
1303978227641,1.98069
1303978287641,1.96676
1303978347641,1.96843
1303978407641,1.97490
1303978467641,1.96952
1303978527641,1.97774
1303978587641,1.96898
1303978647641,1.96556
1303978707641,1.96978
1303978767641,1.96721
1303978827641,1.96338
1303978887641,1.97459
1303978947641,1.96549
1303979007641,1.95937
1303979067641,1.97999
1303979127641,1.95861
1303979187641,1.95942
1303979247641,1.96690
1303979307641,1.96650
1303979367641,1.97193
1303979427641,1.98156
1303979487641,1.96255
1303979547641,1.94898
1303979607641,1.94213
1303979667641,1.96823
1303979727641,1.95268
1303979787641,1.96303
1303979847641,1.96825
1303979907641,1.95400
1303979967641,1.95773
1303980027641,1.96387
1303980087641,1.95358
1303980147641,1.95837
1303980207641,1.95822
1303980267641,1.97761
1303980327641,1.96283
1303980387641,1.97326
1303980447641,1.96057
1303980507641,1.96380
1303980567641,1.96246
1303980627641,1.95466
1303980687641,1.97208
1303980747641,1.95976
1303980807641,1.96541
1303980867641,1.95578
1303980927641,1.95758
1303980987641,1.96702
1303981047641,1.96766
1303981107641,1.97477
1303981167641,1.97314
1303981227652,1.97221
1303981287652,1.97055
1303981347652,1.98060
1303981407652,1.97665
1303981467652,1.97028
1303981527652,1.96864
1303981587652,1.98448
1303981647652,1.97086
1303981707652,1.97478
1303981767652,1.98065
1303981827652,1.97042
1303981887652,1.97188
1303981947652,1.97490
1303982007652,1.98106
1303982067652,1.99288
1303982127652,1.97960
1303982187652,1.98344
1303982247652,1.98233
1303982307652,1.99030
1303982367652,1.98001
1303982427652,1.89781
1303982487652,1.99156
1303982547652,1.99864
1303982607652,2.00591
1303982667652,1.99193
1303982727652,1.97977
1303982787652,2.00471
1303982847652,1.99376
1303982907652,1.98848
1303982967652,1.98963
1303983027652,2.00741
1303983087652,2.00797
1303983147652,2.01477
1303983207652,2.00720
1303983267652,2.01032
1303983327652,2.03511
1303983387652,2.01300
1303983447652,2.01380
1303983507652,2.01708
1303983567652,2.02883
1303983627652,2.02342
1303983687652,2.03095
1303983747652,2.02282
1303983807652,2.01682
1303983867652,2.02341
1303983927652,2.00400
1303983987652,2.03165
1303984047652,2.02525
1303984107652,2.01107
1303984167652,2.03100
1303984227652,2.02377
1303984287652,2.03057
1303984347652,2.00939
1303984407652,2.01327
1303984467652,2.01374
1303984527652,2.02427
1303984587652,2.02099
1303984647652,1.98490
1303984707652,2.01372
1303984767652,2.00950
1303984827662,2.00474
1303984887662,2.01187
1303984947662,2.01682
1303985007662,1.99802
1303985067662,2.00739
1303985127662,2.01528
1303985187662,2.00362
1303985247662,2.00492
1303985307662,1.99460
1303985367662,2.01600
1303985427662,1.99709
1303985487662,1.99827
1303985547662,1.98350
1303985607662,2.00026
1303985667662,1.99291
1303985727662,2.00455
1303985787662,2.00683
1303985847662,1.99315
1303985907662,2.01337
1303985967662,2.02064
1303986027662,1.99154
1303986087662,2.00253
1303986147662,2.00881
1303986207662,1.99845
1303986267662,2.01020
1303986327662,1.99312
1303986387662,1.99420
1303986447662,2.00282
1303986507662,2.00251
1303986567662,2.01640
1303986627662,1.99871
1303986687662,1.99615
1303986747662,1.99487
1303986807662,2.00576
1303986867662,2.02086
1303986927662,1.99799
1303986987662,2.00911
1303987047662,2.01648
1303987107662,2.00054
1303987167662,2.00044
1303987227662,1.99478
1303987287662,2.02128
1303987347662,2.00191
1303987407662,2.01679
1303987467662,2.00999
1303987527662,2.01635
1303987587662,2.00384
1303987647662,1.99711
1303987707662,2.01829
1303987767662,2.00947
1303987827662,2.00991
1303987887662,2.00548
1303987947662,2.00356
1303988007662,2.01891
1303988067662,2.02123
1303988127662,2.01890
1303988187662,1.99898
1303988247662,2.01157
1303988307662,2.00696
1303988367662,1.99884
1303988427673,2.01389
1303988487673,2.00616
1303988547673,2.00188
1303988607673,2.01626
1303988667673,2.00286
1303988727673,2.01969
1303988787673,2.01279
1303988847673,2.01527
1303988907673,2.00810
1303988967673,2.02072
1303989027673,2.01792
1303989087673,2.03101
1303989147673,2.00410
1303989207673,2.01180
1303989267673,2.00782
1303989327673,2.01257
1303989387673,2.00519
1303989447673,2.02822
1303989507673,2.01359
1303989567673,2.02074
1303989627673,2.00927
1303989687673,2.02009
1303989747673,2.02489
1303989807673,2.03009
1303989867673,2.01859
1303989927673,2.00899
1303989987673,2.00814
1303990047673,2.01335
1303990107673,2.01191
1303990167673,2.02021
1303990227673,2.00833
1303990287673,2.00943
1303990347673,2.02087
1303990407673,2.01758
1303990467673,2.01697
1303990527673,2.01110
1303990587673,2.01105
1303990647673,2.02160
1303990707673,2.02149
1303990767673,2.01816
1303990827673,2.02273
1303990887673,2.00579
1303990947673,2.00578
1303991007673,2.00627
1303991067673,2.00881
1303991127673,2.00091
1303991187673,2.02905
1303991247673,2.00088
1303991307673,2.01832
1303991367673,2.01356
1303991427673,2.00841
1303991487673,2.01178
1303991547673,2.00778
1303991607673,1.99408
1303991667673,2.00558
1303991727673,2.01050
1303991787673,2.00562
1303991847673,2.01172
1303991907673,2.02325
1303991967673,2.02636
1303992027683,2.00423
1303992087683,2.00919
1303992147683,2.01519
1303992207683,2.01532
1303992267683,2.01418
1303992327683,2.01287
1303992387683,2.01468
1303992447683,2.01418
1303992507683,2.02297
1303992567683,2.01857
1303992627683,2.01217
1303992687683,2.02802
1303992747683,2.02760
1303992807683,2.02115
1303992867683,2.01861
1303992927683,2.01064
1303992987683,2.03344
1303993047683,2.01848
1303993107683,2.00413
1303993167683,2.01090
1303993227683,2.02215
1303993287683,2.02510
1303993347683,2.02012
1303993407683,2.01125
1303993467683,2.00772
1303993527683,2.01881
1303993587683,2.01356
1303993647683,2.00714
1303993707683,2.01176
1303993767683,2.01866
1303993827683,2.00206
1303993887683,2.02160
1303993947683,1.99922
1303994007683,2.00892
1303994067683,2.01105
1303994127683,2.01678
1303994187683,2.02259
1303994247683,2.01258
1303994307683,2.01758
1303994367683,2.01134
1303994427683,2.01697
1303994487683,1.99483
1303994547683,2.01183
1303994607683,2.02762
1303994667683,2.00576
1303994727683,2.01533
1303994787683,2.01658
1303994847683,2.00089
1303994907683,2.00864
1303994967683,2.01373
1303995027683,2.02183
1303995087683,2.01741
1303995147683,2.01740
1303995207683,2.01820
1303995267683,2.01126
1303995327683,2.00993
1303995387683,2.01078
1303995447683,2.00686
1303995507683,2.01424
1303995567683,2.01984
1303995627693,2.01056
1303995687693,2.01402
1303995747693,2.03093
1303995807693,2.02104
1303995867693,2.01558
1303995927693,2.03272
1303995987693,2.01788
1303996047693,2.03709
1303996107693,2.01156
1303996167693,2.02724
1303996227693,2.05413
1303996287693,2.03546
1303996347693,2.02275
1303996407693,2.01994
1303996467693,2.03152
1303996527693,2.04427
1303996587693,2.02802
1303996647693,2.03934
1303996707693,2.04526
1303996767693,2.02427
1303996827693,2.05218
1303996887693,2.03427
1303996947693,2.02873
1303997007693,2.01553
1303997067693,2.03156
1303997127693,2.03011
1303997187693,2.03412
1303997247693,2.02574
1303997307693,2.03443
1303997367693,2.02044
1303997427693,2.04157
1303997487693,2.05216
1303997547693,2.04224
1303997607693,2.03549
1303997667693,2.02265
1303997727693,2.03762
1303997787693,2.03157
1303997847693,2.02665
1303997907693,2.03063
1303997967693,2.02950
1303998027693,2.03122
1303998087693,2.02324
1303998147693,2.02341
1303998207693,2.02829
1303998267693,2.02157
1303998327693,2.03304
1303998387693,2.03441
1303998447693,2.02669
1303998507693,2.03558
1303998567693,2.03890
1303998627693,2.03648
1303998687693,2.03481
1303998747693,2.03130
1303998807693,2.02777
1303998867693,2.02842
1303998927693,2.04427
1303998987693,2.04490
1303999047693,2.03758
1303999107693,2.03184
1303999167693,2.03529
1303999227703,2.02464
1303999287703,2.03866
1303999347703,2.04553
1303999407703,2.03254
1303999467703,2.03799
1303999527703,2.02864
1303999587703,2.03891
1303999647703,2.03321
1303999707703,2.02560
1303999767703,2.02992
1303999827703,2.03027
1303999887703,2.03190
1303999947703,2.03652
1304000007703,2.02778
1304000067703,2.03361
1304000127703,2.04662
1304000187703,2.03141
1304000247703,2.03405
1304000307703,2.03957
1304000367703,2.04007
1304000427703,2.03201
1304000487703,2.02877
1304000547703,2.03788
1304000607703,2.04335
1304000667703,2.03012
1304000727703,2.03988
1304000787703,2.04757
1304000847703,2.02768
1304000907703,2.04160
1304000967703,2.03108
1304001027703,2.03165
1304001087703,2.02875
1304001147703,2.03677
1304001207703,2.04517
1304001267703,2.04866
1304001327703,2.02449
1304001387703,2.03618
1304001447703,2.03099
1304001507703,2.04284
1304001567703,2.03393
1304001627703,2.04258
1304001687703,2.03626
1304001747703,2.02816
1304001807703,2.03478
1304001867703,2.03536
1304001927703,2.03481
1304001987703,2.03808
1304002047703,2.02211
1304002107703,2.02942
1304002167703,2.03202
1304002227703,2.02590
1304002287703,2.03215
1304002347703,2.02774
1304002407703,2.02866
1304002467703,2.04964
1304002527703,2.03897
1304002587703,2.04770
1304002647703,2.03938
1304002707703,2.02948
1304002767703,1.96723
1304002827714,2.02595
1304002887714,2.01951
1304002947714,2.00608
1304003007714,2.01687
1304003067714,2.02330
1304003127714,2.00804
1304003187714,2.03416
1304003247714,2.01368
1304003307714,2.01742
1304003367714,2.02215
1304003427714,2.03874
1304003487714,2.01723
1304003547714,2.03469
1304003607714,2.03750
1304003667714,2.03129
1304003727714,2.02346
1304003787714,2.02491
1304003847714,2.01868
1304003907714,2.02988
1304003967714,2.02862
1304004027714,2.02145
1304004087714,2.01788
1304004147714,2.01757
1304004207714,2.15324
1304004267714,2.02745
1304004327714,2.02340
1304004387714,2.01915
1304004447714,2.02556
1304004507714,2.03598
1304004567714,2.02030
1304004627714,2.03833
1304004687714,2.03091
1304004747714,2.02806
1304004807714,2.02620
1304004867714,2.04077
1304004927714,2.03378
1304004987714,2.05417
1304005047714,2.03119
1304005107714,2.01926
1304005167714,2.04650
1304005227714,2.02843
1304005287714,2.03339
1304005347714,2.04109
1304005407714,2.07458
1304005467714,2.03912
1304005527714,2.02782
1304005587714,2.04496
1304005647714,2.04476
1304005707714,2.03628
1304005767714,2.03920
1304005827714,2.03920
1304005887714,2.01697
1304005947714,2.02288
1304006007714,2.01555
1304006067714,2.03886
1304006127714,2.04195
1304006187714,2.03095
1304006247714,2.03474
1304006307714,2.04572
1304006367714,2.04084
1304006427724,2.03185
1304006487724,2.02792
1304006547724,2.04698
1304006607724,2.02439
1304006667724,2.04464
1304006727724,2.01355
1304006787724,2.04931
1304006847724,2.03795
1304006907724,2.05322
1304006967724,2.03979
1304007027724,2.02651
1304007087724,2.03516
1304007147724,2.18856
1304007207724,2.02386
1304007267724,2.03360
1304007327724,2.03770
1304007387724,2.05144
1304007447724,2.03568
1304007507724,2.04333
1304007567724,2.04030
1304007627724,2.04119
1304007687724,2.04590
1304007747724,2.04041
1304007807724,2.04096
1304007867724,2.04350
1304007927724,2.02574
1304007987724,2.03516
1304008047724,2.03422
1304008107724,2.03867
1304008167724,2.04167
1304008227724,2.04276
1304008287724,2.04767
1304008347724,2.04152
1304008407724,2.04256
1304008467724,2.02986
1304008527724,2.03459
1304008587724,2.03264
1304008647724,2.03722
1304008707724,2.03819
1304008767724,2.05090
1304008827724,2.04002
1304008887724,2.03119
1304008947724,2.04131
1304009007724,2.05149
1304009067724,2.04859
1304009127724,2.04009
1304009187724,2.05770
1304009247724,2.06315
1304009307724,2.05659
1304009367724,2.04520
1304009427724,2.03561
1304009487724,2.05891
1304009547724,2.03990
1304009607724,2.04502
1304009667724,2.04189
1304009727724,2.03329
1304009787724,2.04316
1304009847724,2.03477
1304009907724,2.04358
1304009967724,2.04337
1304010027734,2.04985
1304010087734,2.04422
1304010147734,2.05099
1304010207734,2.04582
1304010267734,2.03664
1304010327734,2.04191
1304010387734,2.04584
1304010447734,2.02833
1304010507734,2.04373
1304010567734,2.05093
1304010627734,2.03850
1304010687734,2.05001
1304010747734,2.05411
1304010807734,2.04957
1304010867734,2.05637
1304010927734,2.04760
1304010987734,2.03377
1304011047734,2.04500
1304011107734,2.05523
1304011167734,2.04114
1304011227734,2.04787
1304011287734,2.03448
1304011347734,2.04783
1304011407734,2.05554
1304011467734,2.03047
1304011527734,2.05914
1304011587734,2.03309
1304011647734,2.04492
1304011707734,2.03475
1304011767734,2.03397
1304011827734,2.04450
1304011887734,2.04798
1304011947734,2.04977
1304012007734,2.03441
1304012067734,2.04056
1304012127734,2.05335
1304012187734,2.03694
1304012247734,2.04389
1304012307734,2.04004
1304012367734,2.03676
1304012427734,2.04682
1304012487734,2.06136
1304012547734,2.05016
1304012607734,2.03268
1304012667734,2.03783
1304012727734,2.04541
1304012787734,2.04791
1304012847734,2.05389
1304012907734,2.04531
1304012967734,2.04282
1304013027734,2.05048
1304013087734,2.04229
1304013147734,2.04809
1304013207734,2.03925
1304013267734,2.04413
1304013327734,2.05187
1304013387734,2.06069
1304013447734,2.05776
1304013507734,2.05203
1304013567734,2.05468
1304013627744,2.02410
1304013687744,2.05294
1304013747744,2.03783
1304013807744,2.05611
1304013867744,2.05030
1304013927744,2.03717
1304013987744,2.04185
1304014047744,2.04747
1304014107744,2.06682
1304014167744,2.05819